This is the latest recevied weather packets stored in our database for station/object KB3FKJ. If no packets are shown the sender has not sent any weather packets the latest 10 day(s).
| Time | Temp. | Humidity | Pressure | Rain* | Wind** | Luminosity | Snow |
|---|---|---|---|---|---|---|---|
| 1777664641 | 10° C | 76% | 1010.8 hPa | 0 mm | - | 29 W/m² | - |
| 1777664336 | 10.56° C | 75% | 1010.6 hPa | 0 mm | - | 27 W/m² | - |
| 1777664035 | 10.56° C | 71% | 1010.6 hPa | 0 mm | - | 39 W/m² | - |
| 1777663732 | 11.11° C | 65% | 1010.5 hPa | 0 mm | - | 30 W/m² | - |
| 1777663429 | 11.67° C | 61% | 1010.6 hPa | 0 mm | - | 46 W/m² | - |
| 1777663127 | 12.22° C | 60% | 1010.4 hPa | 0 mm | - | 60 W/m² | - |
| 1777662823 | 12.78° C | 59% | 1010.2 hPa | 0 mm | - | 48 W/m² | - |
| 1777662520 | 12.78° C | 56% | 1010.2 hPa | 0 mm | - | 54 W/m² | - |
| 1777662216 | 12.78° C | 57% | 1010.1 hPa | 0 mm | - | 35 W/m² | - |
| 1777661911 | 13.33° C | 53% | 1010.1 hPa | 0 mm | - | 68 W/m² | - |
| 1777661608 | 13.33° C | 53% | 1010.1 hPa | 0 mm | - | 108 W/m² | - |
| 1777661304 | 13.89° C | 51% | 1010.1 hPa | 0 mm | - | 137 W/m² | - |
| 1777661000 | 13.89° C | 53% | 1010.1 hPa | 0 mm | - | 114 W/m² | - |
| 1777660695 | 14.44° C | 50% | 1009.9 hPa | 0 mm | - | 179 W/m² | - |
| 1777660393 | 13.89° C | 51% | 1010.2 hPa | 0 mm | - | 173 W/m² | - |
| 1777660089 | 14.44° C | 52% | 1010.3 hPa | 0 mm | - | 124 W/m² | - |
| 1777659786 | 13.33° C | 51% | 1010.5 hPa | 0 mm | - | 187 W/m² | - |
| 1777659483 | 13.33° C | 51% | 1010.4 hPa | 0 mm | - | 132 W/m² | - |
| 1777659180 | 13.33° C | 58% | 1010.4 hPa | 0 mm | - | 112 W/m² | - |
| 1777658877 | 13.33° C | 53% | 1010.2 hPa | 0 mm | - | 125 W/m² | - |
| 1777658573 | 13.33° C | 51% | 1010.4 hPa | 0 mm | - | 183 W/m² | - |
| 1777658269 | 13.89° C | 50% | 1010.5 hPa | 0 mm | - | 207 W/m² | - |
| 1777657968 | 13.89° C | 52% | 1010.5 hPa | 0 mm | - | 209 W/m² | - |
| 1777657663 | 13.33° C | 53% | 1010.5 hPa | 0 mm | - | 207 W/m² | - |
| 1777657361 | 13.33° C | 55% | 1010.7 hPa | 0 mm | - | 194 W/m² | - |
* Rain latest hour (hover to see other rain measurements)
** Current wind speed in m/s (hover to see current wind gust speed)